Wind_Speed
69 70 73 75 71 65 61 57 55 54 51 58 63 61 55 47 44 46 45 42 42 39 34 26 25 29 33 36 36 34 33 33 30 26 27 29 26 28 32 34 39 41 45 49 53 57 57 61 64 65 66 69 69 74
73 73 74 74 72 66 61 58 56 54 54 50 61 64 59 50 46 45 48 45 42 39 35 32 32 27 28 31 35 38 37 37 33 35 35 34 33 36 39 41 47 50 52 54 56 59 63 67 69 69 71 72 73 75
75 76 76 74 71 67 62 58 57 55 54 51 52 65 62 55 50 47 45 47 46 41 39 37 36 35 30 30 31 35 40 40 38 39 39 41 42 45 46 49 51 51 54 60 64 67 70 70 71 73 73 75 77 75
77 76 74 72 69 67 64 60 56 54 54 53 50 58 66 60 56 51 50 47 47 49 47 45 44 43 42 41 43 43 43 42 44 45 47 50 53 51 52 54 56 61 63 69 69 73 70 71 74 75 77 79 79 73
78 79 76 71 71 69 66 62 58 53 52 54 53 50 60 67 59 57 54 52 51 52 51 51 50 50 49 49 49 51 52 51 52 54 55 57 57 56 56 58 60 69 73 75 73 74 74 76 76 77 80 81 78 76
78 78 77 75 74 69 67 65 60 56 53 52 53 54 51 54 61 63 60 57 57 57 56 56 55 54 54 54 55 57 57 58 60 61 61 61 65 65 61 62 69 77 79 76 73 77 81 80 80 81 83 79 79 82
78 80 80 77 75 71 70 67 64 60 57 54 53 53 55 55 54 53 54 57 56 57 58 59 60 60 61 60 62 63 65 67 66 66 66 68 69 69 66 65 75 74 76 77 81 84 82 82 83 85 83 84 85 88
79 82 81 76 75 74 72 68 66 64 61 57 55 55 56 55 55 55 58 58 54 54 55 54 54 61 65 65 67 71 72 72 69 69 70 70 70 70 63 74 76 77 79 82 83 83 84 84 84 84 85 88 89 92
71 74 76 75 74 71 70 70 69 66 64 61 58 56 55 53 54 55 55 56 56 55 53 51 53 58 62 66 68 70 72 72 68 67 69 69 68 70 76 77 78 80 81 81 80 82 82 84 87 89 90 93 95 99
67 69 74 75 69 69 67 68 70 67 65 63 61 59 58 57 57 55 55 53 52 53 53 58 61 62 66 69 72 73 73 72 69 69 72 70 69 75 79 78 79 80 80 79 82 84 87 89 91 93 96 99 102 105
68 73 73 77 72 72 71 69 68 68 68 66 66 64 64 62 62 62 60 57 56 55 55 57 62 64 67 70 73 75 73 72 70 70 73 71 70 74 75 78 79 79 82 86 89 90 92 95 98 100 103 106 108 111
62 63 68 71 73 73 74 70 69 69 68 69 70 71 71 70 70 70 67 64 61 61 59 61 66 69 69 72 73 72 73 73 72 72 72 71 73 77 79 81 83 86 89 91 94 97 100 102 105 107 110 112 115 118
61 61 62 64 66 71 74 72 78 76 73 73 72 75 77 77 77 74 72 70 70 70 71 71 72 74 75 77 79 79 80 80 81 81 81 81 84 86 88 89 92 94 96 98 101 105 108 110 114 117 120 121 124 128
57 58 60 62 61 61 65 73 77 83 77 73 78 82 81 80 80 79 80 82 82 82 81 80 80 82 83 86 88 89 90 90 91 91 91 93 95 99 99 101 102 103 104 106 109 112 116 119 123 126 127 126 122 117
57 57 58 60 62 62 63 62 62 66 70 75 81 88 87 85 84 85 88 89 90 90 90 90 90 90 91 94 96 97 99 101 103 103 103 104 106 108 109 109 112 114 116 119 119 121 123 121 117 115 113 110 105 104
59 59 60 60 60 60 62 62 63 66 70 72 75 76 81 86 93 97 95 94 93 93 95 98 98 99 100 103 105 107 108 110 112 113 114 114 115 117 118 119 121 121 121 117 115 114 111 107 108 107 108 105 105 103
68 66 64 63 62 61 61 61 61 64 67 70 71 75 76 80 82 89 93 95 98 101 104 105 105 105 108 111 110 110 114 115 116 117 118 119 118 119 119 117 114 115 114 109 105 102 103 103 104 103 102 100 97 97
71 72 72 70 70 69 68 66 65 66 68 67 68 69 75 80 80 83 89 91 92 93 94 95 96 100 102 103 104 104 105 107 107 108 109 109 108 110 107 104 103 103 104 104 104 103 101 101 102 100 98 95 92 93
70 71 72 73 76 75 74 76 73 73 73 75 74 73 74 76 76 80 80 85 83 81 85 89 90 95 98 98 98 99 100 102 104 107 109 110 111 113 113 111 108 108 108 106 105 105 102 98 97 94 91 90 86 86
70 70 71 71 72 73 73 75 76 74 75 79 81 82 84 84 84 84 85 86 88 91 92 92 91 93 96 97 98 101 102 102 104 105 106 106 107 107 108 109 108 105 102 100 98 95 93 92 91 87 84 82 82 81
71 72 72 72 72 72 72 73 73 76 77 77 77 79 81 82 83 82 83 83 84 86 87 87 89 93 95 96 98 98 101 105 109 109 106 103 103 104 103 101 100 100 97 94 93 93 91 87 85 84 82 81 80 79
68 69 71 72 73 73 73 75 76 78 79 80 80 80 81 81 82 82 81 81 82 83 84 85 85 85 85 86 87 90 93 95 96 97 98 99 100 97 95 93 91 92 91 88 87 87 87 85 82 79 78 77 74 73
63 65 67 68 70 71 72 75 75 77 78 79 79 79 79 80 79 78 79 80 82 83 84 84 84 85 85 87 88 88 88 89 90 89 89 87 86 87 88 86 83 82 82 81 80 78 77 76 75 74 71 70 69 68
52 54 56 55 56 58 61 63 65 66 67 69 70 70 71 72 73 73 74 75 77 78 78 79 80 80 82 82 83 82 83 82 81 80 79 79 80 79 79 77 74 73 72 72 72 72 72 71 70 69 68 66 66 65
50 52 52 53 55 57 57 59 61 62 61 63 63 64 66 66 65 65 66 67 67 67 68 70 70 71 71 72 72 72 71 70 69 69 70 71 72 72 71 70 69 68 68 67 66 66 66 65 64 64 64 62 62 62
45 47 49 50 49 49 49 52 52 53 54 55 57 60 60 58 58 59 61 60 61 61 62 62 62 62 61 61 61 62 62 64 65 63 62 64 64 64 65 66 66 65 62 61 61 63 64 64 63 62 61 58 57 57
42 43 44 45 44 43 45 47 48 48 48 49 51 50 49 50 52 54 55 56 55 53 52 50 49 49 50 53 55 58 59 59 59 60 60 60 60 60 60 60 60 60 61 61 60 58 59 59 58 56 54 54 53 55
37 37 38 38 39 39 41 41 41 41 42 42 44 45 46 47 48 48 47 46 45 45 44 45 46 48 50 52 53 55 55 56 54 53 54 55 54 55 54 54 54 54 55 55 54 54 53 53 53 53 54 53 53 52
31 32 33 34 35 36 37 38 39 40 42 43 43 43 43 42 42 41 41 41 42 43 44 44 45 45 46 47 48 48 48 48 48 47 46 48 49 48 49 49 49 50 50 50 48 49 50 51 51 51 52 53 53 53
28 29 30 31 32 33 33 34 35 35 35 35 36 36 37 37 38 38 39 39 40 41 43 43 43 44 43 44 44 45 46 46 46 46 45 45 45 46 46 46 46 46 46 46 47 47 46 45 45 45 44 45 46 47
26 27 28 28 29 30 30 30 30 31 31 32 33 34 35 35 36 37 37 36 37 38 40 41 41 41 41 42 41 43 44 45 45 45 45 44 45 45 45 44 45 47 46 47 47 48 48 47 46 45 43 42 41 40
23 24 24 24 24 25 26 27 28 29 30 32 33 33 32 32 32 33 34 35 36 37 37 38 39 39 40 40 40 40 40 40 41 42 42 42 43 44 45 45 46 46 46 46 45 44 43 42 43 42 41 41 40 39
20 20 21 22 22 23 24 24 25 26 28 29 30 29 29 30 31 32 34 34 35 35 36 37 37 37 37 37 38 38 39 40 41 41 42 42 42 42 42 41 42 42 41 41 42 43 42 41 40 40 40 39 38 37
Wind_Direction
182 180 178 178 181 185 189 195 191 190 194 201 200 198 200 202 202 203 210 213 212 216 218 221 227 231 233 237 237 237 238 248 249 248 250 256 270 274 276 279 283 290 291 292 296 296 299 303 308 308 309 312 315 316
180 180 180 180 184 188 191 196 195 195 192 200 201 200 201 203 207 206 215 216 217 218 220 226 234 235 238 236 238 240 243 248 248 251 255 261 268 275 279 284 288 291 291 290 293 296 299 303 305 307 308 312 313 314
181 182 182 183 186 190 192 198 201 196 197 198 204 202 204 205 208 209 213 220 223 228 230 235 240 243 242 239 241 242 242 244 247 255 259 266 274 278 282 284 284 283 284 289 294 298 299 302 303 305 308 310 309 309
183 184 183 185 189 192 195 199 204 202 201 199 205 207 206 207 209 211 212 217 223 230 235 238 239 243 249 253 258 260 261 260 260 265 270 273 273 275 276 278 282 283 285 289 294 295 298 299 301 303 306 306 306 304
186 187 187 189 193 196 199 202 206 209 208 208 203 210 212 212 214 216 219 223 225 227 231 235 238 241 245 249 252 258 260 261 262 265 267 269 272 274 279 284 287 286 288 291 294 295 296 298 300 303 304 304 303 304
190 192 192 195 195 197 200 204 206 210 213 215 215 211 213 219 222 224 227 232 235 236 237 240 242 245 249 253 254 255 257 261 264 267 272 274 274 277 279 282 285 284 288 290 293 294 297 299 301 301 301 300 300 303
194 195 196 198 198 200 202 206 208 210 212 215 218 221 221 220 224 227 230 234 239 241 243 245 248 252 252 252 253 256 258 260 265 268 271 272 274 277 281 284 279 284 288 290 291 295 297 298 298 296 297 298 301 303
198 199 200 200 201 205 206 207 211 213 215 217 219 222 224 227 230 231 230 232 238 242 245 247 251 253 254 254 256 258 260 263 266 269 271 271 276 279 282 279 283 285 287 289 291 293 295 295 294 295 296 298 299 300
205 205 205 206 205 207 209 211 214 217 219 220 221 224 226 229 232 236 237 240 242 243 246 249 252 255 258 257 258 260 262 264 267 269 270 273 278 282 280 281 283 284 286 288 292 293 292 293 294 295 297 298 299 301
206 207 208 207 210 214 215 217 218 220 223 226 228 229 231 233 235 239 241 244 246 249 249 250 253 254 259 262 264 264 265 268 271 273 274 277 279 279 280 283 285 286 287 288 288 289 289 291 293 294 295 298 300 302
212 211 211 211 211 213 216 219 222 224 227 228 231 234 235 237 238 239 240 241 243 246 248 251 253 255 258 260 263 266 269 271 273 273 273 274 275 275 277 279 280 282 284 286 288 289 290 291 293 295 296 298 300 302
221 221 218 216 216 219 219 220 223 227 228 230 231 234 236 238 239 242 244 245 247 249 250 251 253 255 257 260 262 264 266 268 268 268 270 272 274 275 276 278 280 282 284 285 287 288 291 293 294 296 297 299 300 301
222 225 226 219 219 222 220 224 225 228 231 232 235 238 239 240 242 244 247 249 250 249 250 251 253 257 260 262 263 264 265 267 269 270 272 274 275 276 278 279 280 281 283 284 287 289 290 292 294 295 297 298 299 300
228 229 227 231 228 226 226 228 232 232 232 237 239 240 241 245 246 247 247 248 249 250 252 252 255 257 259 261 263 265 267 268 268 270 271 273 275 276 277 279 279 281 282 284 285 287 289 293 295 296 296 297 300 303
230 230 228 229 232 230 234 234 234 234 236 237 238 239 241 245 247 249 249 250 252 253 254 256 257 259 261 263 265 266 268 270 272 273 274 275 276 278 280 281 281 282 284 285 288 290 291 294 296 297 300 301 302 303
232 231 233 235 235 236 233 234 237 238 238 241 243 245 246 246 247 246 249 252 254 255 256 257 258 259 261 264 265 266 268 271 273 275 276 277 279 280 281 283 284 287 289 292 293 294 295 296 297 299 300 300 301 306
239 241 240 240 239 242 240 238 241 240 239 241 243 244 246 248 250 250 251 252 254 254 255 256 259 261 262 263 265 267 270 272 273 275 277 280 281 282 283 285 287 288 290 292 293 293 296 298 299 302 302 303 306 307
236 239 242 246 248 251 250 249 249 249 248 246 249 250 247 245 250 252 252 252 254 256 258 259 260 261 263 266 269 270 270 272 274 275 276 277 280 283 285 286 287 288 290 292 296 298 300 300 302 302 304 306 306 305
239 241 242 243 245 248 248 251 254 256 257 259 259 259 258 256 255 254 254 253 252 257 258 262 264 264 266 270 270 269 270 271 274 276 278 280 281 284 288 291 293 294 296 297 298 299 301 302 302 303 304 303 304 305
242 243 244 245 246 248 249 252 253 253 254 256 258 259 260 261 261 261 259 258 260 263 265 266 266 267 267 269 271 271 271 273 276 279 281 282 283 285 287 289 291 292 294 296 298 299 300 301 301 301 302 303 305 304
241 243 245 246 248 249 250 251 254 255 256 257 257 258 259 261 262 262 263 264 265 266 268 268 268 268 269 269 271 273 273 273 275 278 279 282 285 286 288 291 293 295 297 299 299 300 301 301 300 302 304 304 304 305
241 243 245 248 249 251 253 254 255 256 258 260 261 261 262 263 264 265 267 267 268 269 270 270 270 270 271 271 272 274 274 277 279 281 282 284 286 289 291 293 295 295 295 296 297 297 296 298 300 301 301 301 303 304
242 243 245 247 249 251 253 255 256 258 259 260 262 263 263 264 265 266 266 267 267 268 269 270 271 273 274 275 276 277 278 279 280 282 284 287 290 291 292 291 291 291 291 293 295 296 297 298 298 299 301 302 303 303
243 244 246 248 249 250 251 254 254 256 257 259 261 262 263 264 264 265 265 266 266 267 268 270 272 274 275 276 278 279 280 282 284 287 289 290 288 287 287 289 291 293 293 294 294 296 296 297 299 300 301 302 302 301
245 245 247 248 249 250 251 252 254 255 257 258 260 261 262 263 265 267 268 268 270 271 272 273 274 276 277 279 281 283 285 287 288 285 282 283 285 288 291 292 292 293 294 295 295 296 296 297 298 298 299 300 300 299
249 250 250 251 253 253 254 256 257 257 257 258 260 261 264 267 268 269 270 271 272 273 274 275 278 280 284 285 286 284 283 281 282 286 288 287 289 290 291 293 294 295 296 296 296 297 297 297 298 299 299 300 300 300
250 251 252 255 255 254 254 255 256 258 260 261 264 266 267 268 268 268 270 272 275 278 281 284 285 283 281 279 279 279 281 284 286 286 287 289 290 291 291 292 292 293 294 295 295 295 295 296 298 300 300 300 300 300
251 252 253 255 256 256 256 257 260 262 262 263 264 265 265 266 268 272 276 279 281 282 281 279 279 278 278 278 279 280 281 283 285 287 287 287 289 289 290 291 291 292 293 295 297 298 299 300 301 302 301 302 302 303
252 254 254 254 255 255 257 258 258 259 260 262 265 269 272 276 278 281 281 280 280 281 281 279 278 279 279 279 280 283 285 287 287 285 285 288 290 291 292 295 297 297 298 298 299 299 299 300 301 302 303 304 305 307
255 256 258 259 260 260 262 264 266 269 271 274 274 274 275 276 276 277 277 278 280 281 282 283 284 284 287 288 290 291 291 291 293 295 296 297 297 297 298 298 298 298 299 299 299 300 299 301 302 303 304 304 303 304
255 256 258 259 261 263 265 266 268 269 271 273 273 273 273 274 275 277 279 280 280 279 280 282 285 287 288 289 291 292 294 296 297 298 299 300 300 300 301 302 303 304 305 305 307 307 307 308 308 307 307 305 304 301
257 259 261 263 266 267 267 268 268 269 270 271 273 275 277 280 280 279 281 281 281 282 285 287 288 290 290 292 293 294 294 295 296 297 299 299 300 301 303 304 304 304 305 306 305 305 306 308 308 309 309 308 308 307
269 268 267 266 266 267 270 273 274 274 274 275 277 279 283 285 285 284 283 286 288 290 291 291 292 292 293 295 296 297 297 298 298 298 299 299 300 301 301 303 304 306 307 308 310 311 312 312 311 310 311 312 313 313
Height
10315 10329 10345 10361 10376 10389 10402 10412 10424 10434 10445 10456 10467 10477 10487 10496 10504 10513 10519 10526 10532 10539 10545 10550 10555 10558 10561 10563 10567 10570 10573 10573 10576 10577 10578 10578 10580 10580 10579 10577 10574 10572 10570 10565 10561 10556 10556 10551 10547 10541 10534 10527 10521 10512
10315 10330 10346 10360 10374 10388 10399 10410 10420 10432 10440 10451 10463 10473 10483 10492 10500 10507 10513 10519 10526 10533 10538 10544 10548 10551 10554 10556 10559 10562 10565 10565 10567 10567 10568 10570 10571 10570 10569 10569 10563 10561 10557 10552 10548 10542 10538 10536 10532 10526 10519 10513 10506 10498
10318 10330 10345 10359 10373 10385 10396 10407 10416 10428 10438 10446 10457 10467 10477 10486 10494 10501 10507 10513 10520 10526 10532 10537 10541 10545 10548 10549 10551 10554 10556 10556 10557 10557 10558 10559 10560 10558 10558 10556 10553 10547 10544 10540 10535 10530 10524 10522 10517 10511 10505 10499 10491 10486
10320 10332 10346 10359 10371 10382 10393 10403 10413 10423 10434 10441 10451 10461 10471 10478 10486 10494 10500 10506 10512 10518 10524 10528 10533 10537 10539 10541 10541 10544 10546 10547 10548 10547 10548 10547 10546 10547 10545 10543 10539 10530 10528 10523 10525 10516 10515 10507 10502 10497 10490 10482 10474 10467
10320 10332 10344 10356 10367 10378 10389 10399 10409 10418 10428 10438 10445 10455 10465 10472 10480 10486 10493 10498 10503 10508 10514 10516 10521 10525 10528 10530 10531 10532 10533 10534 10533 10533 10533 10534 10533 10533 10534 10532 10525 10508 10507 10508 10509 10500 10497 10492 10486 10482 10472 10463 10455 10449
10318 10329 10341 10350 10362 10373 10384 10394 10404 10414 10422 10431 10440 10448 10456 10464 10472 10479 10485 10490 10494 10499 10504 10507 10511 10514 10518 10521 10521 10521 10520 10519 10520 10520 10521 10521 10514 10516 10523 10521 10506 10491 10491 10490 10490 10482 10476 10472 10468 10462 10453 10446 10439 10431
10316 10325 10335 10347 10359 10369 10379 10389 10399 10408 10417 10425 10432 10440 10448 10454 10461 10469 10476 10478 10484 10489 10493 10499 10501 10503 10505 10506 10505 10505 10506 10506 10507 10509 10508 10505 10500 10501 10506 10505 10482 10483 10478 10475 10468 10464 10461 10454 10448 10440 10434 10427 10421 10413
10309 10319 10331 10342 10354 10364 10375 10384 10394 10403 10411 10419 10426 10433 10439 10445 10452 10458 10462 10466 10471 10477 10482 10490 10491 10485 10486 10489 10490 10487 10487 10487 10492 10493 10492 10488 10489 10488 10494 10474 10472 10466 10462 10459 10454 10450 10443 10436 10429 10423 10416 10410 10403 10394
10313 10324 10334 10344 10353 10362 10372 10381 10389 10398 10405 10413 10420 10426 10432 10438 10442 10447 10452 10456 10460 10467 10472 10477 10475 10471 10470 10469 10470 10469 10469 10471 10478 10478 10474 10474 10477 10474 10462 10458 10456 10450 10446 10441 10437 10431 10424 10415 10408 10402 10396 10388 10381 10372
10309 10319 10329 10341 10351 10362 10370 10378 10385 10391 10400 10407 10413 10419 10424 10428 10432 10438 10442 10447 10452 10456 10462 10460 10457 10458 10455 10451 10450 10450 10452 10455 10462 10462 10455 10460 10462 10451 10443 10442 10437 10431 10426 10423 10417 10413 10406 10399 10392 10384 10376 10368 10359 10349
10304 10313 10323 10334 10342 10352 10361 10369 10377 10385 10391 10398 10403 10407 10410 10415 10419 10424 10429 10435 10439 10443 10446 10447 10443 10442 10439 10437 10433 10431 10436 10437 10442 10442 10437 10442 10441 10431 10429 10423 10421 10417 10410 10402 10395 10389 10384 10377 10370 10362 10354 10345 10336 10326
10297 10306 10317 10327 10337 10345 10353 10359 10366 10373 10379 10384 10388 10390 10395 10400 10403 10409 10418 10423 10427 10429 10433 10430 10424 10422 10423 10419 10418 10421 10418 10418 10421 10421 10420 10423 10419 10412 10409 10406 10402 10396 10390 10383 10375 10365 10360 10354 10346 10338 10330 10323 10314 10304
10290 10298 10306 10316 10326 10333 10342 10348 10354 10360 10366 10370 10373 10376 10379 10382 10388 10399 10406 10409 10409 10411 10411 10411 10408 10405 10405 10403 10401 10401 10399 10401 10399 10401 10402 10400 10394 10391 10388 10386 10379 10374 10369 10363 10356 10349 10340 10333 10325 10317 10308 10300 10291 10280
10282 10289 10298 10305 10314 10322 10329 10336 10341 10348 10352 10355 10359 10361 10363 10368 10375 10382 10385 10387 10388 10388 10391 10393 10392 10391 10387 10382 10381 10380 10378 10379 10379 10380 10380 10375 10371 10364 10364 10362 10358 10352 10348 10342 10335 10329 10321 10313 10304 10294 10284 10275 10266 10254
10272 10279 10287 10294 10300 10307 10314 10320 10326 10331 10334 10337 10340 10343 10349 10352 10355 10358 10361 10364 10368 10370 10371 10371 10373 10372 10369 10364 10363 10359 10354 10351 10350 10352 10355 10353 10347 10342 10340 10337 10330 10324 10322 10316 10311 10305 10298 10290 10277 10264 10256 10248 10241 10228
10260 10268 10274 10280 10286 10292 10298 10303 10307 10311 10314 10318 10322 10326 10329 10330 10333 10336 10338 10342 10345 10346 10348 10349 10350 10350 10347 10344 10342 10337 10332 10330 10327 10326 10324 10323 10321 10316 10311 10306 10299 10293 10293 10287 10279 10273 10266 10258 10250 10241 10230 10219 10211 10199
10247 10252 10259 10265 10271 10277 10281 10285 10289 10292 10296 10300 10303 10304 10308 10310 10313 10314 10317 10319 10322 10324 10325 10325 10326 10324 10322 10319 10319 10318 10312 10310 10306 10301 10299 10295 10291 10286 10281 10276 10272 10267 10262 10256 10251 10244 10238 10230 10221 10212 10202 10190 10179 10167
10239 10243 10247 10251 10257 10260 10264 10268 10273 10274 10277 10281 10284 10286 10289 10291 10292 10293 10294 10296 10298 10299 10300 10299 10301 10299 10300 10299 10296 10294 10289 10285 10282 10278 10274 10270 10266 10261 10256 10252 10247 10242 10236 10229 10223 10215 10208 10199 10190 10181 10174 10165 10156 10142
10222 10227 10233 10238 10243 10247 10252 10253 10255 10257 10260 10261 10263 10266 10268 10270 10270 10272 10272 10274 10276 10277 10278 10277 10277 10277 10276 10273 10269 10267 10265 10261 10258 10253 10247 10242 10236 10230 10225 10220 10215 10210 10205 10199 10192 10186 10178 10170 10162 10155 10147 10137 10131 10120
10207 10212 10216 10221 10225 10229 10232 10234 10237 10240 10242 10243 10244 10246 10248 10248 10249 10249 10250 10252 10253 10253 10255 10255 10255 10253 10250 10247 10245 10243 10239 10234 10229 10224 10218 10214 10210 10204 10198 10195 10191 10186 10181 10175 10170 10161 10154 10146 10134 10127 10120 10112 10106 10097
10191 10195 10199 10202 10205 10209 10213 10215 10217 10219 10220 10223 10223 10225 10225 10225 10226 10226 10228 10229 10229 10229 10231 10230 10228 10224 10223 10222 10219 10215 10211 10207 10203 10199 10195 10190 10185 10179 10175 10172 10167 10160 10154 10147 10141 10132 10123 10116 10110 10102 10095 10087 10079 10072
10178 10181 10183 10185 10188 10191 10195 10196 10197 10199 10201 10201 10203 10203 10204 10205 10206 10206 10206 10206 10205 10206 10204 10202 10200 10200 10199 10198 10195 10189 10185 10181 10179 10175 10170 10165 10160 10155 10151 10147 10144 10137 10128 10123 10117 10110 10101 10093 10086 10081 10075 10068 10061 10053
10163 10165 10167 10170 10173 10176 10178 10178 10180 10181 10182 10182 10181 10182 10183 10182 10183 10184 10184 10182 10182 10179 10179 10178 10176 10175 10175 10170 10166 10163 10162 10159 10154 10151 10147 10143 10140 10134 10128 10122 10119 10113 10106 10099 10092 10085 10079 10072 10066 10059 10053 10047 10041 10034
10148 10149 10151 10156 10158 10160 10161 10161 10161 10161 10161 10161 10160 10161 10161 10160 10160 10161 10161 10160 10157 10157 10157 10156 10154 10154 10149 10146 10143 10140 10136 10133 10131 10129 10126 10121 10114 10107 10100 10097 10094 10089 10084 10079 10072 10065 10058 10052 10046 10039 10033 10028 10023 10017
10130 10132 10135 10137 10139 10140 10141 10141 10141 10141 10143 10142 10143 10142 10140 10139 10141 10141 10140 10138 10138 10139 10138 10135 10133 10131 10128 10125 10121 10118 10115 10113 10110 10107 10102 10095 10089 10084 10080 10075 10071 10066 10062 10057 10051 10045 10039 10034 10028 10023 10017 10012 10006 9999
10113 10115 10115 10117 10119 10122 10124 10122 10123 10124 10124 10125 10124 10122 10122 10124 10125 10124 10120 10120 10119 10118 10117 10115 10113 10113 10110 10107 10103 10097 10093 10088 10084 10084 10081 10073 10070 10067 10062 10056 10049 10043 10041 10038 10034 10027 10019 10013 10009 10004 9998 9994 9988 9980
10097 10099 10101 10102 10104 10107 10107 10107 10107 10108 10109 10109 10108 10108 10108 10108 10107 10104 10103 10102 10100 10101 10100 10099 10097 10094 10092 10088 10082 10077 10073 10071 10068 10064 10060 10057 10053 10049 10044 10040 10035 10029 10022 10018 10014 10011 10005 9998 9992 9987 9982 9974 9969 9962
10087 10088 10090 10092 10092 10094 10093 10094 10095 10095 10094 10094 10093 10093 10093 10092 10091 10090 10090 10089 10087 10085 10084 10082 10080 10077 10073 10068 10064 10060 10057 10054 10054 10052 10045 10041 10038 10033 10029 10025 10020 10014 10008 10003 9998 9992 9986 9981 9975 9969 9962 9956 9951 9945
10078 10078 10079 10080 10080 10080 10081 10081 10081 10081 10080 10080 10080 10080 10079 10078 10078 10077 10076 10074 10072 10069 10066 10063 10062 10060 10057 10053 10049 10046 10043 10039 10036 10035 10033 10027 10021 10018 10013 10007 10002 9997 9992 9987 9983 9978 9971 9965 9959 9954 9948 9940 9934 9928
10067 10068 10069 10069 10070 10070 10070 10070 10070 10070 10069 10068 10068 10067 10066 10065 10064 10062 10061 10059 10059 10056 10052 10049 10046 10043 10041 10039 10035 10031 10026 10023 10020 10016 10012 10009 10004 10000 9996 9991 9987 9982 9977 9972 9966 9961 9957 9952 9946 9940 9935 9930 9923 9917
10059 10059 10059 10060 10059 10059 10059 10059 10059 10058 10058 10056 10055 10053 10052 10052 10051 10050 10048 10048 10046 10042 10039 10036 10034 10031 10028 10025 10022 10018 10013 10009 10004 10000 9996 9992 9988 9983 9979 9975 9970 9964 9960 9954 9949 9944 9938 9933 9928 9923 9919 9915 9911 9906
10050 10051 10051 10051 10051 10050 10050 10049 10048 10047 10045 10044 10042 10041 10041 10041 10040 10037 10036 10033 10031 10028 10026 10024 10021 10018 10014 10011 10008 10004 10001 9997 9992 9987 9983 9979 9974 9970 9965 9961 9956 9951 9946 9941 9936 9930 9926 9921 9915 9910 9906 9901 9897 9892
10043 10043 10042 10042 10041 10040 10039 10039 10038 10036 10035 10033 10032 10032 10031 10030 10027 10025 10022 10020 10017 10015 10013 10010 10007 10003 10000 9998 9994 9991 9987 9982 9978 9974 9970 9966 9961 9957 9952 9949 9943 9938 9933 9928 9923 9918 9913 9909 9904 9899 9894 9889 9884 9880